When you browse on this site, cookies collect data to enhance your experience and personalize the content and advertising you see.
Visit our Privacy Policy to learn more. By continuing to use the site, you agree to this use of cookies and data.
  • In Czech Republic
  • List of Countries
  • For 7 days
  • Water Temperature
  • Satellite Maps
  • Weather Map
  • Weather Widgets
  • user-avatar
    Login

    Hourly Weather Winnipeg

    Today, 21 June, Friday

    Time Temperature Precipitation Wind Pressure Humidity
    00:00 +15°C° 0 mm 1 mps 736 mmHg 81%
    01:00 +15°C° 0 mm 1 mps 737 mmHg 81%
    02:00 +14°C° 0 mm 1 mps 737 mmHg 81%
    03:00 +14°C° 0 mm 1 mps 737 mmHg 81%
    04:00 +14°C° 0 mm 1 mps 737 mmHg 81%
    05:00 +15°C° 0 mm 2 mps 737 mmHg 82%
    06:00 +14°C° 0 mm 3 mps 737 mmHg 82%
    07:00 +17°C° 0 mm 4 mps 737 mmHg 75%
    08:00 +17°C° 0 mm 5 mps 738 mmHg 68%
    09:00 +19°C° 0 mm 5 mps 738 mmHg 60%
    10:00 +20°C° 0 mm 6 mps 738 mmHg 60%
    11:00 +20°C° 0 mm 6 mps 738 mmHg 60%
    12:00 +21°C° 0 mm 6 mps 738 mmHg 59%
    13:00 +21°C° 0 mm 6 mps 738 mmHg 62%
    14:00 +21°C° 0 mm 6 mps 738 mmHg 65%
    15:00 +21°C° 0 mm 5 mps 738 mmHg 68%
    16:00 +21°C° 0 mm 5 mps 737 mmHg 65%
    17:00 +20°C° 0 mm 5 mps 737 mmHg 63%
    18:00 +19°C° 0 mm 5 mps 736 mmHg 61%
    19:00 +19°C° 0.2 mm 5 mps 736 mmHg 64%
    20:00 +17°C° 0.2 mm 5 mps 736 mmHg 67%
    21:00 +17°C° 0.2 mm 5 mps 736 mmHg 69%
    22:00 +17°C° 1.1 mm 6 mps 736 mmHg 77%
    23:00 +16°C° 1.1 mm 8 mps 736 mmHg 84%

    Tomorrow, 22 June, Saturday

    Time Temperature Precipitation Wind Pressure Humidity
    00:00 +16°C° 1.1 mm 9 mps 736 mmHg 92%
    01:00 +16°C° 0.3 mm 8 mps 736 mmHg 92%
    02:00 +16°C° 0.3 mm 8 mps 736 mmHg 93%
    03:00 +16°C° 0.3 mm 7 mps 736 mmHg 94%
    04:00 +16°C° 0.1 mm 7 mps 736 mmHg 94%
    05:00 +16°C° 0.1 mm 6 mps 736 mmHg 93%
    06:00 +16°C° 0.1 mm 5 mps 736 mmHg 93%
    07:00 +16°C° 0 mm 5 mps 736 mmHg 89%
    08:00 +17°C° 0 mm 5 mps 736 mmHg 84%
    09:00 +17°C° 0 mm 5 mps 736 mmHg 80%
    10:00 +19°C° 0 mm 6 mps 736 mmHg 74%
    11:00 +20°C° 0 mm 7 mps 736 mmHg 68%
    12:00 +22°C° 0 mm 7 mps 736 mmHg 62%
    13:00 +22°C° 0 mm 7 mps 736 mmHg 62%
    14:00 +22°C° 0 mm 7 mps 736 mmHg 63%
    15:00 +22°C° 0 mm 7 mps 736 mmHg 63%
    16:00 +22°C° 0.1 mm 7 mps 736 mmHg 66%
    17:00 +22°C° 0.1 mm 7 mps 735 mmHg 69%
    18:00 +22°C° 0.1 mm 6 mps 735 mmHg 72%
    19:00 +20°C° 0.4 mm 6 mps 735 mmHg 77%
    20:00 +18°C° 0.4 mm 7 mps 735 mmHg 83%
    21:00 +16°C° 0.4 mm 7 mps 735 mmHg 89%
    22:00 +16°C° 0.1 mm 7 mps 734 mmHg 90%
    23:00 +16°C° 0.1 mm 6 mps 734 mmHg 92%

    Day after tomorrow, 23 June, Sunday

    Time Temperature Precipitation Wind Pressure Humidity
    00:00 +15°C° 0.1 mm 6 mps 733 mmHg 94%
    01:00 +15°C° 0 mm 6 mps 733 mmHg 94%
    02:00 +14°C° 0 mm 5 mps 733 mmHg 93%
    03:00 +14°C° 0 mm 5 mps 733 mmHg 93%
    04:00 +14°C° 0 mm 5 mps 732 mmHg 91%
    05:00 +14°C° 0 mm 5 mps 732 mmHg 90%
    06:00 +14°C° 0 mm 5 mps 732 mmHg 88%
    07:00 +15°C° 0 mm 5 mps 732 mmHg 84%
    08:00 +17°C° 0 mm 5 mps 732 mmHg 79%
    09:00 +19°C° 0 mm 5 mps 732 mmHg 74%
    10:00 +20°C° 0 mm 5 mps 732 mmHg 71%
    11:00 +21°C° 0 mm 5 mps 732 mmHg 68%
    12:00 +22°C° 0 mm 5 mps 732 mmHg 65%
    13:00 +22°C° 0.1 mm 5 mps 732 mmHg 64%
    14:00 +23°C° 0.1 mm 5 mps 732 mmHg 63%
    15:00 +23°C° 0.1 mm 5 mps 732 mmHg 62%
    16:00 +23°C° 0 mm 4 mps 732 mmHg 64%
    17:00 +23°C° 0 mm 4 mps 731 mmHg 66%
    18:00 +23°C° 0 mm 4 mps 731 mmHg 69%
    19:00 +21°C° 0.1 mm 3 mps 731 mmHg 74%
    20:00 +19°C° 0.1 mm 3 mps 731 mmHg 80%
    21:00 +18°C° 0.1 mm 2 mps 731 mmHg 86%
    22:00 +17°C° 0 mm 3 mps 731 mmHg 88%
    23:00 +17°C° 0 mm 3 mps 731 mmHg 90%

    24 June, Monday

    Time Temperature Precipitation Wind Pressure Humidity
    00:00 +16°C° 0 mm 3 mps 730 mmHg 91%
    01:00 +16°C° 0 mm 3 mps 730 mmHg 92%
    02:00 +15°C° 0 mm 2 mps 730 mmHg 93%
    03:00 +15°C° 0 mm 2 mps 730 mmHg 93%
    04:00 +15°C° 0 mm 2 mps 730 mmHg 92%
    05:00 +16°C° 0 mm 2 mps 730 mmHg 90%
    06:00 +16°C° 0 mm 2 mps 730 mmHg 89%
    07:00 +18°C° 0 mm 3 mps 730 mmHg 83%
    08:00 +20°C° 0 mm 3 mps 731 mmHg 76%
    09:00 +22°C° 0 mm 3 mps 731 mmHg 70%
    10:00 +24°C° 0 mm 3 mps 731 mmHg 65%
    11:00 +25°C° 0 mm 4 mps 730 mmHg 61%
    12:00 +26°C° 0 mm 4 mps 730 mmHg 56%
    13:00 +26°C° 0 mm 4 mps 730 mmHg 56%
    14:00 +27°C° 0 mm 4 mps 730 mmHg 55%
    15:00 +27°C° 0 mm 4 mps 730 mmHg 55%
    16:00 +27°C° 0.3 mm 4 mps 730 mmHg 59%
    17:00 +26°C° 0.3 mm 3 mps 730 mmHg 63%
    18:00 +26°C° 0.3 mm 3 mps 730 mmHg 67%
    19:00 +24°C° 0.3 mm 2 mps 730 mmHg 71%
    20:00 +21°C° 0.3 mm 2 mps 730 mmHg 75%
    21:00 +20°C° 0.3 mm 2 mps 730 mmHg 79%
    22:00 +19°C° 0 mm 2 mps 730 mmHg 82%
    23:00 +19°C° 0 mm 2 mps 730 mmHg 84%

    25 June, Tuesday

    Time Temperature Precipitation Wind Pressure Humidity
    00:00 +18°C° 0 mm 2 mps 729 mmHg 86%
    01:00 +17°C° 0 mm 2 mps 729 mmHg 87%
    02:00 +17°C° 0 mm 2 mps 729 mmHg 89%
    03:00 +16°C° 0 mm 2 mps 729 mmHg 90%
    04:00 +17°C° 0 mm 2 mps 729 mmHg 89%
    05:00 +17°C° 0 mm 2 mps 730 mmHg 88%
    06:00 +17°C° 0 mm 2 mps 730 mmHg 88%
    07:00 +18°C° 0 mm 3 mps 730 mmHg 84%
    08:00 +20°C° 0 mm 4 mps 730 mmHg 81%
    09:00 +21°C° 0 mm 4 mps 731 mmHg 77%
    10:00 +22°C° 0 mm 5 mps 731 mmHg 73%
    11:00 +23°C° 0 mm 6 mps 731 mmHg 68%
    12:00 +24°C° 0 mm 6 mps 731 mmHg 64%
    13:00 +24°C° 0.6 mm 6 mps 732 mmHg 66%
    14:00 +24°C° 0.6 mm 6 mps 732 mmHg 67%
    15:00 +24°C° 0.6 mm 6 mps 732 mmHg 69%
    16:00 +23°C° 0.4 mm 5 mps 732 mmHg 71%
    17:00 +23°C° 0.4 mm 5 mps 733 mmHg 72%
    18:00 +23°C° 0.4 mm 4 mps 733 mmHg 74%
    19:00 +21°C° 0.2 mm 3 mps 733 mmHg 78%
    20:00 +20°C° 0.2 mm 2 mps 734 mmHg 82%
    21:00 +19°C° 0.2 mm 1 mps 734 mmHg 86%
    22:00 +19°C° 0 mm 1 mps 734 mmHg 88%
    23:00 +18°C° 0 mm 1 mps 735 mmHg 89%

    26 June, Wednesday

    Time Temperature Precipitation Wind Pressure Humidity
    00:00 +18°C° 0 mm 1 mps 735 mmHg 91%
    01:00 +16°C° 0 mm 1 mps 735 mmHg 92%
    02:00 +16°C° 0 mm 1 mps 736 mmHg 92%
    03:00 +15°C° 0 mm 2 mps 736 mmHg 93%
    04:00 +16°C° 0 mm 2 mps 736 mmHg 93%
    05:00 +16°C° 0 mm 2 mps 737 mmHg 93%
    06:00 +16°C° 0 mm 2 mps 737 mmHg 92%
    07:00 +18°C° 0 mm 2 mps 737 mmHg 87%
    08:00 +19°C° 0 mm 2 mps 738 mmHg 81%
    09:00 +21°C° 0 mm 3 mps 738 mmHg 76%
    10:00 +21°C° 0 mm 3 mps 738 mmHg 70%
    11:00 +22°C° 0 mm 3 mps 739 mmHg 65%
    12:00 +24°C° 0 mm 3 mps 739 mmHg 59%
    13:00 +25°C° 0.1 mm 3 mps 739 mmHg 60%
    14:00 +25°C° 0.1 mm 3 mps 740 mmHg 60%
    15:00 +25°C° 0.1 mm 3 mps 740 mmHg 61%
    16:00 +24°C° 0.1 mm 3 mps 740 mmHg 61%
    17:00 +24°C° 0.1 mm 3 mps 740 mmHg 62%
    18:00 +24°C° 0.1 mm 3 mps 741 mmHg 62%
    19:00 +21°C° 0 mm 3 mps 741 mmHg 66%
    20:00 +19°C° 0 mm 3 mps 741 mmHg 71%
    21:00 +16°C° 0 mm 3 mps 741 mmHg 75%
    22:00 +14°C° 0 mm 3 mps 742 mmHg 74%
    23:00 +13°C° 0 mm 3 mps 742 mmHg 72%
    Show more